Retour au catalogue

CZ-4 DEB

ActifSSO
NORAD 26203·DEBRIS·🇨🇳 China

Lancé Oct 14, 1999 depuis Taiyuan Satellite Launch Center

Loading…

Prochains Passages (prochaines 24 heures)

TLE

FraisSource: Space-Track

Époque: Sep 14, 2026, 08:04 UTC

1 26203U 99057CR  26257.33624324  .00000285  00000-0  11036-3 0  9991
2 26203  98.3550  27.6588 0108816  57.5051 331.4026 14.33769620381730

Suivez CZ-4 DEB en temps réel avec AllMySat

Download on the App Store